| time (UTC) | temp C | wind direction | speed KPH | gust KPH | rain 1hr cm | rain 24hr cm | rain mn cm | humidity % | barometer mb |
| 20260510044549 | 22 | 0 | 0.0 | 3.2 | 0.00 | 0.05 | 0.05 | 83 | 1010.7 |
| 20260510043125 | 22 | 0 | 0.0 | 0.0 | 0.00 | 0.05 | 0.05 | 80 | 1010.9 |
| 20260510041554 | 23 | 0 | 0.0 | 1.6 | 0.00 | 0.05 | 0.05 | 78 | 1010.8 |
| 20260510040048 | 24 | 0 | 0.0 | 3.2 | 0.00 | 0.05 | 0.05 | 78 | 1010.9 |
| 20260510034554 | 25 | 0 | 0.0 | 4.8 | 0.00 | 0.05 | 0.05 | 77 | 1010.7 |
| 20260510033050 | 25 | 179 | 1.6 | 9.7 | 0.00 | 0.05 | 0.05 | 75 | 1010.6 |
| 20260510031615 | 25 | 124 | 0.0 | 6.4 | 0.00 | 0.05 | 0.05 | 73 | 1010.4 |
| 20260510030047 | 25 | 155 | 0.0 | 3.2 | 0.00 | 0.05 | 0.05 | 71 | 1010.2 |
| 20260510024549 | 25 | 125 | 0.0 | 1.6 | 0.00 | 0.05 | 0.05 | 70 | 1010.0 |
| 20260510023052 | 25 | 0 | 0.0 | 3.2 | 0.00 | 0.05 | 0.05 | 67 | 1009.8 |
| 20260510021548 | 25 | 0 | 0.0 | 4.8 | 0.00 | 0.05 | 0.05 | 65 | 1009.6 |
| 20260510020048 | 26 | 142 | 0.0 | 8.0 | 0.00 | 0.05 | 0.05 | 63 | 1009.5 |
| 20260510014550 | 26 | 0 | 0.0 | 6.4 | 0.00 | 0.05 | 0.05 | 61 | 1009.4 |
| 20260510013050 | 26 | 176 | 0.0 | 4.8 | 0.00 | 0.05 | 0.05 | 58 | 1009.3 |
| 20260510011602 | 27 | 0 | 0.0 | 4.8 | 0.00 | 0.05 | 0.05 | 54 | 1009.1 |
| 20260510010058 | 28 | 133 | 0.0 | 3.2 | 0.00 | 0.05 | 0.05 | 52 | 1008.9 |
| 20260510004543 | 28 | 0 | 0.0 | 9.7 | 0.00 | 0.05 | 0.05 | 51 | 1008.8 |
| 20260510003046 | 29 | 109 | 3.2 | 12.9 | 0.00 | 0.05 | 0.05 | 50 | 1008.6 |
| 20260510001547 | 30 | 119 | 4.8 | 14.5 | 0.00 | 0.05 | 0.05 | 52 | 1008.5 |
| 20260510000047 | 31 | 117 | 0.0 | 9.7 | 0.00 | 0.05 | 0.05 | 50 | 1008.3 |
| 20260509234547 | 31 | 117 | 3.2 | 8.0 | 0.00 | 0.05 | 0.05 | 50 | 1008.2 |
| 20260509233047 | 32 | 103 | 1.6 | 6.4 | 0.00 | 0.05 | 0.05 | 50 | 1008.1 |
| 20260509231550 | 32 | 151 | 1.6 | 6.4 | 0.00 | 0.05 | 0.05 | 49 | 1008.1 |
| 20260509230045 | 32 | 117 | 1.6 | 11.3 | 0.00 | 0.05 | 0.05 | 49 | 1008.1 |
| 20260509224548 | 32 | 102 | 0.0 | 6.4 | 0.00 | 0.05 | 0.05 | 49 | 1008.1 |
| 20260509223049 | 32 | 134 | 3.2 | 11.3 | 0.00 | 0.05 | 0.05 | 50 | 1008.1 |
| 20260509221547 | 32 | 119 | 3.2 | 6.4 | 0.00 | 0.05 | 0.05 | 48 | 1008.1 |
| 20260509220049 | 32 | 210 | 1.6 | 11.3 | 0.00 | 0.05 | 0.05 | 48 | 1008.1 |
| 20260509214547 | 33 | 0 | 0.0 | 8.0 | 0.00 | 0.05 | 0.05 | 41 | 1008.2 |
| 20260509213058 | 33 | 91 | 3.2 | 11.3 | 0.00 | 0.05 | 0.05 | 41 | 1008.3 |
| 20260509211609 | 33 | 249 | 0.0 | 9.7 | 0.00 | 0.05 | 0.05 | 45 | 1008.3 |
| 20260509210056 | 33 | 246 | 1.6 | 8.0 | 0.00 | 0.05 | 0.05 | 45 | 1008.7 |
| 20260509204558 | 33 | 295 | 4.8 | 9.7 | 0.00 | 0.05 | 0.05 | 47 | 1008.9 |
| 20260509203056 | 33 | 212 | 1.6 | 6.4 | 0.00 | 0.05 | 0.05 | 45 | 1009.1 |
| 20260509201550 | 32 | 238 | 1.6 | 14.5 | 0.00 | 0.05 | 0.05 | 48 | 1009.2 |
| 20260509200045 | 32 | 230 | 1.6 | 12.9 | 0.00 | 0.05 | 0.05 | 48 | 1009.3 |
| 20260509194546 | 32 | 314 | 1.6 | 9.7 | 0.00 | 0.05 | 0.05 | 50 | 1009.3 |
| 20260509193048 | 32 | 278 | 1.6 | 11.3 | 0.00 | 0.05 | 0.05 | 50 | 1009.5 |
| 20260509191545 | 32 | 200 | 6.4 | 16.1 | 0.00 | 0.05 | 0.05 | 53 | 1009.7 |
| 20260509190049 | 31 | 283 | 3.2 | 8.0 | 0.00 | 0.05 | 0.05 | 57 | 1010.0 |
| 20260509184547 | 30 | 283 | 1.6 | 9.7 | 0.00 | 0.05 | 0.05 | 62 | 1010.4 |
| 20260509183056 | 30 | 224 | 0.0 | 8.0 | 0.00 | 0.05 | 0.05 | 63 | 1010.6 |
| 20260509181559 | 30 | 0 | 0.0 | 12.9 | 0.00 | 0.05 | 0.05 | 63 | 1010.8 |
| 20260509180051 | 30 | 113 | 1.6 | 6.4 | 0.00 | 0.05 | 0.05 | 63 | 1011.0 |
| 20260509174554 | 30 | 25 | 0.0 | 8.0 | 0.00 | 0.05 | 0.05 | 62 | 1011.1 |
| 20260509173044 | 30 | 196 | 1.6 | 8.0 | 0.00 | 0.05 | 0.05 | 63 | 1011.3 |
| 20260509171549 | 30 | 150 | 1.6 | 9.7 | 0.00 | 0.05 | 0.05 | 63 | 1011.2 |
| 20260509170044 | 30 | 245 | 3.2 | 8.0 | 0.00 | 0.05 | 0.05 | 65 | 1011.4 |
| 20260509164547 | 29 | 262 | 3.2 | 8.0 | 0.00 | 0.05 | 0.05 | 67 | 1011.3 |
| 20260509163058 | 28 | 167 | 3.2 | 9.7 | 0.00 | 0.05 | 0.05 | 69 | 1011.4 |
| 20260509161544 | 27 | 122 | 1.6 | 11.3 | 0.00 | 0.05 | 0.05 | 74 | 1011.4 |
| 20260509160045 | 27 | 143 | 3.2 | 9.7 | 0.00 | 0.05 | 0.05 | 76 | 1011.5 |
| 20260509154550 | 26 | 102 | 3.2 | 11.3 | 0.00 | 0.05 | 0.05 | 80 | 1011.8 |
| 20260509153047 | 25 | 140 | 3.2 | 8.0 | 0.00 | 0.05 | 0.05 | 82 | 1011.9 |
| 20260509151545 | 26 | 202 | 0.0 | 8.0 | 0.00 | 0.05 | 0.05 | 80 | 1011.7 |
| 20260509150052 | 25 | 194 | 1.6 | 6.4 | 0.00 | 0.05 | 0.05 | 84 | 1011.4 |
| 20260509144549 | 25 | 0 | 0.0 | 4.8 | 0.00 | 0.05 | 0.05 | 86 | 1011.5 |
| 20260509143053 | 23 | 206 | 0.0 | 8.0 | 0.00 | 0.05 | 0.05 | 90 | 1011.1 |
| 20260509141549 | 23 | 256 | 0.0 | 6.4 | 0.00 | 0.05 | 0.05 | 94 | 1010.8 |
| 20260509140049 | 23 | 0 | 0.0 | 6.4 | 0.00 | 0.05 | 0.05 | 95 | 1010.8 |
| 20260509134553 | 22 | 0 | 1.6 | 4.8 | 0.00 | 0.05 | 0.05 | 95 | 1010.7 |
| 20260509133059 | 22 | 120 | 0.0 | 1.6 | 0.00 | 0.05 | 0.05 | 97 | 1011.1 |
| 20260509131547 | 22 | 57 | 0.0 | 1.6 | 0.00 | 0.05 | 0.05 | 97 | 1011.4 |
| 20260509130046 | 21 | 0 | 0.0 | 1.6 | 0.00 | 0.05 | 0.05 | 97 | 1011.3 |
| 20260509124551 | 21 | 0 | 0.0 | 1.6 | 0.00 | 0.05 | 0.05 | 96 | 1011.4 |
| 20260509123051 | 21 | 0 | 0.0 | 1.6 | 0.00 | 0.05 | 0.05 | 96 | 1011.1 |
| 20260509121555 | 21 | 0 | 0.0 | 1.6 | 0.00 | 0.05 | 0.05 | 96 | 1010.9 |
| 20260509120048 | 21 | 2 | 0.0 | 1.6 | 0.00 | 0.05 | 0.05 | 96 | 1011.1 |
| 20260509114556 | 21 | 0 | 0.0 | 0.0 | 0.00 | 0.05 | 0.05 | 96 | 1011.5 |
| 20260509113052 | 21 | 0 | 0.0 | 3.2 | 0.00 | 0.05 | 0.05 | 96 | 1011.8 |
| 20260509111549 | 21 | 0 | 0.0 | 3.2 | 0.00 | 0.05 | 0.05 | 96 | 1011.8 |
| 20260509110050 | 21 | 51 | 1.6 | 4.8 | 0.00 | 0.05 | 0.05 | 96 | 1012.1 |
| 20260509104552 | 21 | 0 | 0.0 | 3.2 | 0.00 | 0.05 | 0.05 | 96 | 1012.1 |
| 20260509103050 | 21 | 0 | 0.0 | 3.2 | 0.00 | 0.05 | 0.05 | 96 | 1012.0 |
| 20260509101549 | 21 | 0 | 0.0 | 1.6 | 0.00 | 0.05 | 0.05 | 96 | 1011.6 |
| 20260509100057 | 21 | 0 | 0.0 | 0.0 | 0.03 | 0.05 | 0.05 | 95 | 1011.0 |
| 20260509094551 | 21 | 0 | 0.0 | 0.0 | 0.03 | 0.05 | 0.05 | 95 | 1010.8 |
| 20260509093051 | 21 | 0 | 0.0 | 0.0 | 0.05 | 0.05 | 0.05 | 95 | 1010.6 |
| 20260509091552 | 21 | 0 | 0.0 | 0.0 | 0.05 | 0.05 | 0.05 | 95 | 1010.6 |
| 20260509090052 | 21 | 0 | 0.0 | 0.0 | 0.03 | 0.03 | 0.03 | 95 | 1010.6 |
| 20260509084558 | 21 | 0 | 0.0 | 1.6 | 0.03 | 0.03 | 0.03 | 94 | 1010.8 |
| 20260509083049 | 21 | 0 | 0.0 | 4.8 | 0.00 | 0.00 | 0.00 | 94 | 1011.1 |
| 20260509081552 | 21 | 51 | 0.0 | 3.2 | 0.00 | 0.00 | 0.00 | 93 | 1010.9 |
| 20260509080129 | 21 | 0 | 0.0 | 1.6 | 0.00 | 0.00 | 0.00 | 93 | 1010.9 |
| 20260509074551 | 21 | 0 | 0.0 | 1.6 | 0.00 | 0.00 | 0.00 | 93 | 1011.0 |
| 20260509073147 | 21 | 0 | 0.0 | 1.6 | 0.00 | 0.00 | 0.00 | 93 | 1010.9 |
| 20260509071550 | 22 | 0 | 0.0 | 0.0 | 0.00 | 0.00 | 0.00 | 92 | 1010.9 |
| 20260509070050 | 22 | 0 | 0.0 | 0.0 | 0.00 | 0.00 | 0.00 | 92 | 1010.9 |
| 20260509064550 | 22 | 0 | 0.0 | 0.0 | 0.00 | 0.00 | 0.00 | 93 | 1011.0 |
| 20260509063125 | 22 | 0 | 0.0 | 4.8 | 0.00 | 0.00 | 0.00 | 93 | 1010.7 |
| 20260509061551 | 21 | 0 | 0.0 | 3.2 | 0.00 | 0.00 | 0.00 | 94 | 1010.7 |
| 20260509060050 | 21 | 0 | 0.0 | 3.2 | 0.00 | 0.00 | 0.00 | 94 | 1010.5 |
| 20260509054547 | 21 | 142 | 0.0 | 4.8 | 0.00 | 0.00 | 0.00 | 94 | 1010.4 |
| 20260509053050 | 21 | 0 | 0.0 | 4.8 | 0.00 | 0.00 | 0.00 | 94 | 1010.7 |
| 20260509051548 | 21 | 0 | 0.0 | 6.4 | 0.00 | 0.00 | 0.00 | 94 | 1010.3 |
| 20260509050045 | 20 | 152 | 0.0 | 1.6 | 0.00 | 0.00 | 0.00 | 94 | 1010.1 |